Terug naar catalogus

FENGYUN 2F DEB

ActiefMEO
NORAD 43396·DEBRIS·🇨🇳 China

Gelanceerd Jan 13, 2012 vanaf Xichang Satellite Launch Center

Loading…

Volgende Passages (komende 24 uur)

TLE

VerouderendSource: Space-Track

Epoch: Sep 1, 2026, 21:25 UTC

1 43396U 12002D   26244.89286726 -.00000387  00000-0  00000+0 0  9994
2 43396   9.2827  56.5641 0251176 307.1997  50.6453  1.00244886 43531

Volg FENGYUN 2F DEB in realtime met AllMySat

Download on the App Store